SCP
0 0 0 0 0 0 0 0 0 0 0 0 0 0 0 0 0 0 0 0 0 0 0 0 0 0 0 0 0 0 0 0 0 0 0 0 0 0 0 0 0 0 0 0 0 0 0 0 0 0 0 0 0 0
0 0 0 0 0 0 0 0 0 0 0 0 0 0 0 0 0 0 0 0 0 0 0 0 0 0 0 0 0 0 0 0 0 0 0 0 0 0 0 0 0 0 0 0 0 0 0 0 0 0 0 0 0 0
0 0 0 0 0 0 0 0 0 0 0 0 0 0 0 0 0 0 0 0 0 0 0 0 0 0 0 0 0 0 0 0 0 0 0 0 0 0 0 0 0 0 0 0 0 0 0 -0 0 0 0 0 0 0
0 0 0 0 0 0 0 0 0 0 0 0 0 0 0 0 0 0 0 0 0 0 0 0 0 0 0 0 0 0 0 0 0 0 0 0 0 0 0 0 0 0 0 0 0 0 -0 0 0 0 0 0 0 0
0 0 0 0 0 0 0 0 0 0 0 0 0 0 0 0 0 0 0 0 0 0 0 0 0 0 0 0 0 0 0 0 0 0 0 0 0 0 0 0 0 0 0 0 -0 -0 0 0 0 0 0 0 0 0
0 0 0 0 0 0 0 0 0 0 0 0 0 0 0 0 0 0 0 0 0 0 0 0 0 0 0 0 0 0 0 0 0 0 0 0 0 0 0 -0 0 0 0 0 -0 0 0 0 0 0 0 0 0 0
0 0 0 0 0 0 0 0 0 0 0 0 0 0 0 0 0 0 0 0 0 0 0 0 0 0 0 0 0 0 0 0 0 -0 -0 0 0 0 0 0 0 0 -0 -0 -0 0 0 0 0 0 0 0 0 0
0 0 0 0 0 0 0 0 0 0 0 0 0 0 0 0 0 0 0 0 0 0 0 0 0 0 0 0 0 0 0 0 0 0 0 0 0 0 -0 -0 -0 0 0 -0 0 0 0 0 0 0 0 0 0 0
0 0 0 0 0 0 0 0 0 0 0 0 0 0 0 0 0 0 0 0 0 0 0 0 0 0 0 0 0 0 0 0 0 0 0 0 -0 0 -0 -0 -0 0 0 0 -0 -0 0 0 0 0 0 0 0 -0
0 0 0 0 0 0 0 0 0 0 0 0 0 0 0 0 0 0 0 0 0 0 0 0 0 0 0 0 0 0 0 0 0 0 0 0 0 0 -0 0 0 0 -0 -0 -0 -0 -0 -0 -0 -0 -0 -0 -0 -0
0 0 0 0 0 0 0 0 0 0 0 0 0 0 0 0 0 0 0 0 0 0 0 0 0 0 0 0 0 0 0 -0 -0 0 0 0 0 0 0 0 0 0 0 -0 -0 -0 -0 -0 -0 -0 -0 0 0 0
0 0 0 0 0 0 0 0 0 0 0 0 0 0 0 0 0 0 0 0 0 0 0 0 0 0 -0 -0 0 0 -0 -0 -0 0 0 0 0 0 0 0 0 -0 -0 -0 -0 -0 -0 -0 -0 -0 -0 0 0 -0
0 0 0 0 0 0 0 0 0 0 0 0 0 0 0 0 0 0 0 0 0 0 0 0 0 0 0 0 0 0 -0 -0 -0 -0 0 0 0 0 0 0 -0 -0 -0 -0 -0 -0 -0 -0 -0 -0 0 0 0 -0
0 0 0 0 0 0 0 0 0 0 0 0 0 0 0 0 0 0 0 0 0 0 0 0 0 0 0 0 -0 -0 0 0 0 0 -0 -0 0 0 0 0 -0 -0 -0 -0 -0 -0 -0 -0 -0 0 -0 0 -0 -0
0 0 0 0 0 0 0 0 0 0 0 0 0 0 0 0 0 0 0 0 0 0 0 0 0 0 -0 -0 0 -0 0 0 -0 0 -0 0 0 0 0 0 -0 -0 -0 -0 -0 -0 0 0 0 0 -0 0 -0 -0
-0 0 0 0 0 0 0 0 0 0 0 0 0 0 0 0 -0 -0 -0 -0 0 -0 0 0 0 0 -0 -0 -0 -0 0 -0 0 0 0 0 0 0 0 -0 -0 -0 0 0 0 0 0 0 0 -0 -0 -0 -0 -0
0 0 0 0 0 0 0 0 0 0 0 0 0 0 0 0 -0 -0 0 0 0 0 0 0 0 0 0 0 -0 -0 -0 0 0 -0 0 0 -0 -0 0 0 -0 -0 0 0 0 0 0 0 -0 -0 -0 0 0 0
0 0 0 0 0 0 0 0 0 0 0 0 0 0 0 0 -0 0 0 0 0 0 0 0 0 0 0 -0 -0 -0 0 0 0 -0 -0 0 -0 0 0 0 0 -0 -0 -0 -0 -0 -0 0 -0 -0 -0 0 0 0
0 -0 -0 -0 0 0 0 0 0 0 -0 0 0 0 0 -0 -0 0 0 0 0 0 0 0 0 -0 0 -0 -0 -0 0 0 0 -0 0 0 0 0 0 0 0 0 -0 -0 -0 -0 -0 -0 -0 -0 -0 -0 -0 0
0 0 -0 -0 0 0 0 0 0 0 0 0 0 0 0 -0 0 0 0 0 0 0 0 0 0 0 0 -0 -0 -0 0 0 0 0 0 0 0 0 0 0 0 0 0 0 -0 -0 -0 -0 -0 -0 -0 -0 -0 -0
0 0 0 0 0 0 0 0 0 -0 -0 -0 0 -0 0 0 0 -0 -0 0 0 0 0 0 0 0 0 0 0 0 0 0 0 0 0 0 0 0 0 0 -0 -0 -0 -0 -0 -0 -0 -0 -0 -0 -0 -0 -0 -0
0 0 0 0 0 0 0 -0 -0 0 -0 -0 0 0 0 0 -0 -0 0 0 0 0 0 0 0 0 0 0 0 0 0 0 0 0 0 -0 0 0 0 -0 -0 -0 -0 -0 -0 -0 -0 -0 -0 -0 -0 -0 -0 -0
0 0 0 0 0 0 -0 0 -0 -0 -0 -0 -0 0 -0 0 0 0 0 0 0 0 0 0 0 0 0 0 0 0 0 0 0 0 0 0 0 0 0 0 -0 -0 -0 -0 -0 -0 -0 0 0 -0 -0 -0 -0 -0
0 0 0 0 0 0 0 -0 -0 0 0 -0 0 0 0 0 0 0 0 0 0 0 0 0 0 0 0 0 0 0 0 0 0 0 0 0 0 0 0 0 -0 -0 -0 -0 -0 -0 -0 -0 -0 -0 -0 0 0 0
0 0 0 0 0 0 -0 -0 0 0 0 0 0 0 0 0 0 0 0 0 0 0 0 0 0 0 0 0 0 0 0 0 -0 0 0 0 0 0 0 0 0 0 -0 -0 -0 -0 -0 -0 -0 -0 -0 -0 -0 0
0 0 -0 -0 0 0 0 0 0 0 0 0 0 0 0 0 0 0 0 0 0 0 0 0 0 0 0 0 0 0 0 0 0 0 0 0 0 0 0 0 0 0 0 -0 -0 -0 0 -0 -0 -0 -0 -0 -0 -0
0 -0 0 0 0 0 0 0 0 0 0 0 0 0 0 0 0 0 0 0 0 0 0 0 0 0 0 0 0 0 0 0 0 0 0 0 0 0 0 0 0 -0 -0 0 0 0 0 0 0 0 -0 -0 -0 -0
0 0 0 0 0 0 0 0 0 0 0 0 0 0 0 0 0 0 0 0 0 0 0 0 0 0 0 0 0 0 0 0 0 0 0 0 0 0 0 0 0 0 0 0 0 0 0 0 0 0 0 -0 -0 -0
0 0 0 0 0 0 0 0 0 0 0 0 0 0 0 0 0 0 0 0 0 0 0 0 0 0 0 0 0 0 0 0 0 0 0 0 0 0 0 0 0 0 0 0 0 0 0 0 0 0 0 0 -0 -0
0 0 0 0 0 0 0 0 0 0 0 0 0 0 0 0 0 0 0 0 0 0 0 0 0 0 0 0 0 0 0 0 0 0 0 0 0 0 0 0 0 0 0 0 0 0 0 0 0 0 0 0 0 0
0 0 0 0 0 0 0 0 0 0 0 0 0 0 0 0 0 0 0 0 0 0 0 0 0 0 0 0 0 0 0 0 0 0 0 0 0 0 0 0 0 0 0 0 0 0 0 0 0 0 0 0 0 0
0 0 0 0 0 0 0 0 0 0 0 0 0 0 0 0 0 0 0 0 0 0 0 0 0 0 0 0 0 0 0 0 0 0 0 0 0 0 0 0 0 0 0 0 0 0 0 0 0 0 0 0 0 0
0 0 0 0 0 0 0 0 0 0 0 0 0 0 0 0 0 0 0 0 0 0 0 0 0 0 0 0 0 0 0 0 0 0 0 0 0 0 0 0 0 0 0 0 0 0 0 0 0 0 0 0 0 0
Wind_Speed_500mb
39 43 48 46 37 29 33 30 28 27 24 24 23 23 22 22 23 19 18 18 21 12 29 31 22 24 18 13 4 10 15 2 7 5 4 2 3 1 3 7 5 2 2 4 4 3 10 2 6 1 5 15 31 41
44 45 45 36 35 33 31 32 29 27 21 24 23 25 21 22 25 23 25 24 22 30 31 56 63 62 54 43 25 8 6 4 5 6 2 4 4 5 1 5 6 2 6 4 12 9 3 2 16 35 26 34 47 53
44 43 43 43 39 38 33 33 31 28 23 24 22 22 22 22 28 28 27 26 24 21 39 26 32 4 5 19 27 17 15 17 9 5 5 3 6 1 3 6 5 6 4 3 7 4 5 31 5 25 47 45 56 60
46 45 45 44 40 38 38 39 38 33 27 26 26 26 25 22 26 27 31 28 21 13 8 16 10 39 49 41 42 41 28 12 2 11 6 3 4 2 5 6 5 10 5 1 9 5 25 3 24 59 62 59 56 58
43 40 37 35 36 37 38 37 34 32 29 27 27 25 28 23 23 30 27 29 26 17 8 26 67 4 15 18 32 29 42 48 16 4 6 5 5 3 4 3 6 9 5 4 8 11 13 32 53 53 56 59 69 68
38 37 36 38 38 38 36 34 33 28 27 25 27 25 24 22 27 22 13 13 17 29 10 7 17 11 18 10 15 34 33 26 13 7 6 8 4 1 3 6 5 10 12 11 9 28 36 47 43 49 60 64 68 68
36 35 36 36 36 35 34 33 31 28 29 24 25 24 22 29 29 19 8 4 13 18 6 11 12 9 12 1 13 21 24 20 15 8 7 5 6 7 5 6 6 11 12 19 26 28 32 31 52 56 62 62 64 68
33 34 35 35 34 32 30 29 28 28 30 28 22 20 21 30 25 26 26 23 11 8 6 5 8 13 4 6 7 15 14 21 14 8 3 6 4 10 7 15 24 23 20 26 18 29 43 51 53 52 57 62 69 72
29 30 32 32 32 29 25 23 23 25 27 24 22 20 24 24 14 12 12 12 24 11 5 7 4 7 9 6 8 12 13 5 8 5 7 10 5 9 10 16 17 9 12 25 36 39 41 49 57 54 59 64 62 75
23 25 23 22 20 18 19 18 22 23 23 18 20 13 8 8 13 12 10 11 13 10 11 8 9 7 4 2 6 4 9 4 4 8 6 5 6 24 20 4 3 13 22 31 37 46 49 47 54 55 60 62 65 79
25 23 20 17 16 17 18 16 26 21 22 36 14 11 12 15 14 5 4 7 7 6 10 12 18 11 8 6 4 7 3 4 4 2 3 3 4 5 7 2 8 19 24 22 27 40 43 41 45 56 58 57 73 77
25 23 20 16 15 13 11 16 27 28 19 18 12 18 17 9 6 4 6 7 8 7 11 10 14 21 9 13 5 7 3 2 7 10 4 4 2 7 6 7 16 21 19 25 36 43 41 40 45 50 51 60 73 76
27 24 25 23 25 22 17 28 18 28 32 27 11 10 10 8 9 10 12 7 6 10 14 12 6 9 12 14 10 1 1 7 5 5 4 4 3 7 7 12 22 16 20 27 40 36 40 40 44 47 51 62 77 79
25 24 25 27 28 25 24 33 26 54 25 11 13 10 9 9 10 10 9 6 13 9 12 22 9 13 10 6 4 4 5 2 4 4 4 4 6 5 7 17 16 21 23 31 36 39 38 40 47 48 48 65 74 81
31 31 32 33 31 30 30 32 28 54 22 12 10 10 13 18 13 13 24 17 10 12 12 7 7 5 2 2 1 1 2 5 4 4 5 3 1 5 13 12 19 27 25 33 37 32 32 38 44 51 56 68 76 81
32 36 44 42 36 34 34 28 56 47 14 10 13 8 10 6 16 28 26 20 27 28 16 10 5 4 6 4 3 8 6 8 7 5 5 3 5 6 9 15 21 26 31 28 24 27 29 36 45 52 61 69 77 81
31 43 44 33 33 38 29 52 40 19 16 10 11 26 16 10 20 13 15 22 25 17 4 6 6 5 3 1 4 6 8 6 10 15 11 10 16 11 10 16 22 29 24 26 27 29 31 35 41 52 64 75 79 80
32 28 17 16 31 44 44 43 20 16 13 18 10 20 28 28 20 15 15 10 19 11 5 4 9 5 7 6 5 7 12 9 20 17 18 16 12 8 11 15 25 26 23 24 27 32 36 40 46 52 61 73 79 84
25 25 18 18 42 41 18 17 13 9 20 9 22 25 16 18 34 31 22 25 29 7 8 7 4 6 6 11 12 10 20 25 31 24 19 15 8 6 8 16 22 24 21 23 29 33 37 38 38 43 56 72 77 80
18 23 23 21 48 16 11 9 14 9 10 13 16 15 18 19 22 23 22 24 31 9 10 7 7 9 11 10 12 11 18 23 30 26 18 16 12 3 4 14 21 20 23 23 27 33 40 42 38 43 51 66 77 76
16 31 45 48 26 8 10 11 12 8 7 10 10 24 10 16 21 21 19 25 18 7 5 13 14 13 12 9 8 14 14 23 32 20 17 14 14 8 2 13 20 21 26 31 35 40 45 40 41 42 46 58 69 68
38 54 32 38 6 9 6 12 7 6 8 8 6 16 7 8 11 19 20 15 10 15 12 7 13 17 18 17 15 13 13 24 22 19 16 13 17 12 4 12 18 21 25 31 34 38 41 39 37 43 46 56 67 68
50 44 12 10 4 9 3 9 8 8 5 4 9 6 6 7 11 22 9 13 16 18 19 26 19 21 21 19 14 18 21 21 21 19 17 16 14 10 6 13 18 20 23 29 29 33 37 39 35 43 48 57 68 69
31 18 8 13 11 6 6 10 8 6 5 3 4 4 5 6 22 6 5 6 12 24 27 22 29 35 27 26 26 26 24 19 13 20 17 10 9 6 6 12 17 19 23 27 28 30 34 38 33 39 45 54 65 66
11 10 10 8 11 9 7 5 7 5 4 4 4 4 4 9 3 3 4 4 15 22 27 34 41 34 27 32 29 25 25 17 8 13 14 11 1 3 5 8 12 17 21 25 33 33 36 37 34 40 45 50 60 66
7 13 11 15 8 7 7 6 8 8 3 4 4 4 4 3 5 3 2 10 5 21 30 40 42 35 29 31 31 28 29 20 11 6 9 9 1 9 10 5 7 14 21 28 32 34 34 37 35 38 40 44 51 60
8 6 10 10 9 5 6 6 7 4 6 5 4 4 2 4 3 4 14 16 10 9 27 32 28 23 19 36 29 24 25 20 15 7 12 10 2 3 6 9 13 18 22 25 29 32 32 33 32 32 35 36 44 52
5 11 7 14 8 6 3 5 7 7 4 7 10 6 6 2 4 11 13 22 4 13 23 25 22 12 23 33 29 25 28 27 19 11 12 8 6 2 3 10 17 20 21 21 25 28 27 27 28 28 30 33 35 39
5 8 14 6 5 5 4 5 6 6 6 8 2 4 6 9 13 10 11 10 10 17 23 22 20 15 26 28 30 30 27 23 17 15 8 12 12 9 7 8 14 19 20 20 22 23 23 25 24 23 24 25 27 28
6 10 6 6 3 2 2 2 7 8 10 15 17 26 29 29 30 19 12 10 12 15 15 16 19 25 29 34 32 28 24 19 14 12 15 16 13 13 11 11 14 17 16 16 18 20 20 21 21 20 17 16 19 21
18 6 5 4 3 10 20 25 26 22 16 24 34 31 19 13 26 28 28 25 18 11 16 19 22 22 20 20 14 10 19 25 26 22 21 19 16 13 10 10 11 13 14 15 16 16 16 17 17 18 17 15 13 14
7 5 6 4 5 14 16 10 11 11 12 13 11 12 11 11 12 17 28 21 15 15 19 20 19 20 19 13 17 18 13 10 10 9 9 8 6 4 8 11 13 14 16 17 17 16 16 16 16 17 18 18 17 14
7 10 11 6 6 5 7 9 8 7 11 8 10 12 13 9 8 11 16 21 12 8 8 5 6 11 12 10 12 17 21 20 17 13 8 3 1 5 10 13 15 15 16 16 16 15 16 16 16 16 15 16 17 18
Wind_Direction_500mb
262 271 284 286 286 275 279 281 284 289 287 298 289 292 286 280 284 289 281 263 250 249 275 268 259 235 240 234 230 342 323 203 314 249 254 299 291 268 268 259 329 199 185 213 173 220 287 86 1 101 270 317 319 318
266 272 278 276 274 270 273 281 282 284 287 291 286 283 281 276 274 275 279 286 264 248 271 283 287 276 258 254 263 246 258 258 258 284 323 305 312 329 322 280 344 314 169 216 181 224 237 198 281 298 292 310 310 312
266 269 271 271 266 266 273 273 280 279 267 281 281 286 285 279 273 264 282 289 273 277 294 282 301 311 226 225 222 223 228 235 241 215 285 299 274 231 276 259 303 322 46 223 3 19 339 319 6 341 325 313 310 306
267 273 275 269 261 263 266 267 272 274 263 273 277 287 287 281 267 267 274 278 274 269 282 283 296 294 293 259 265 258 216 201 228 327 267 238 249 206 257 275 207 232 348 291 272 303 335 352 296 319 317 317 309 308
271 269 269 266 264 266 271 271 265 262 257 266 274 274 279 275 267 259 264 275 270 253 267 288 303 305 317 276 269 213 218 234 262 276 245 233 236 287 256 310 258 199 169 159 246 274 265 293 312 319 316 311 314 313
272 267 267 268 269 270 269 268 263 252 253 254 267 272 285 267 248 234 269 267 248 244 288 295 301 303 354 323 197 202 219 224 209 234 240 268 214 187 302 256 257 214 222 231 274 306 303 304 312 318 315 315 318 320
268 268 267 269 270 272 272 267 262 240 244 248 265 274 272 262 236 224 233 264 316 192 248 292 288 287 342 311 155 182 195 215 215 239 231 263 241 162 245 236 253 247 267 295 312 308 306 311 314 323 321 327 329 322
269 268 269 269 269 270 269 266 255 233 234 234 258 274 258 231 228 238 260 280 243 221 221 272 276 306 301 232 184 191 192 205 226 237 219 227 241 216 253 246 271 268 285 298 304 314 310 315 320 320 328 333 327 320
271 273 274 273 271 270 268 264 244 219 226 243 240 270 202 212 219 244 262 232 243 226 234 224 253 268 340 325 205 179 183 194 218 223 221 188 218 226 234 275 267 279 311 314 321 328 328 324 327 327 330 332 326 324
283 287 277 274 267 266 267 258 209 207 225 234 224 185 203 208 215 150 142 190 223 224 228 242 227 267 293 338 279 188 180 220 232 222 201 225 253 268 293 248 248 316 329 331 340 340 335 329 326 326 334 334 335 329
278 272 268 266 267 262 253 239 202 227 223 197 190 174 179 151 154 187 214 204 201 242 228 242 224 238 240 206 268 233 182 214 254 198 231 238 257 184 172 266 324 330 329 328 336 330 328 326 329 333 334 339 343 334
266 264 249 261 275 264 235 214 202 222 214 190 186 155 147 173 171 230 205 190 208 246 216 207 223 207 238 211 258 228 199 156 249 148 223 247 252 157 205 317 335 334 333 331 335 332 338 335 336 335 340 346 345 340
251 250 250 253 252 248 229 204 231 227 214 177 189 147 146 160 214 216 206 196 214 207 216 207 215 209 194 210 251 243 317 235 146 203 240 238 224 235 278 327 337 336 332 333 345 344 337 338 344 345 345 350 351 343
253 259 258 256 250 241 236 212 223 212 190 186 169 165 203 189 231 204 196 208 205 238 209 218 232 183 186 167 226 186 230 246 251 268 235 248 232 256 315 339 341 340 338 328 336 338 342 344 348 354 353 355 356 350
250 253 254 251 243 231 222 219 228 213 196 197 176 212 215 234 244 244 243 243 250 237 306 322 296 195 191 275 247 67 291 260 247 264 235 275 249 326 350 13 346 338 326 327 333 339 349 351 353 356 359 0 1 358
252 262 253 251 243 223 219 214 198 192 199 219 217 229 223 200 250 243 234 227 237 246 265 240 228 197 225 157 144 221 140 226 248 219 166 109 355 39 71 5 0 352 338 348 360 355 354 356 356 357 3 3 6 5
268 251 255 253 223 214 204 194 179 190 205 217 231 216 219 251 248 219 211 232 240 215 179 206 201 196 123 234 269 181 204 219 192 154 139 116 114 100 35 5 357 356 8 10 8 4 358 357 359 5 5 5 7 7
246 253 246 221 184 193 169 182 184 196 224 225 220 225 218 226 240 231 223 266 196 195 209 250 144 155 198 193 243 234 204 163 151 149 147 137 127 77 25 14 6 15 26 24 19 14 11 11 11 10 7 7 7 8
253 233 212 198 194 175 159 177 192 210 219 226 238 241 225 234 239 239 254 261 200 226 291 264 196 187 220 217 226 212 184 170 171 169 165 160 147 86 44 14 18 26 34 26 15 16 15 12 12 11 10 11 11 10
214 201 203 219 188 153 150 175 185 213 211 221 225 224 217 231 228 225 247 223 207 221 207 201 231 217 213 247 250 234 191 183 177 170 181 189 195 156 46 15 20 24 26 25 23 17 11 13 19 15 12 13 12 13
190 179 187 185 168 130 162 167 189 220 222 227 249 209 218 212 216 219 218 207 216 216 238 227 240 261 257 254 213 196 194 194 187 184 182 173 180 171 61 23 22 20 20 19 21 21 20 25 22 18 16 16 15 18
167 169 158 172 133 165 194 203 198 205 211 248 253 196 217 197 200 206 191 180 207 223 215 235 286 233 185 157 156 167 194 181 178 174 168 153 162 165 102 34 31 29 23 20 20 18 19 24 24 21 22 21 20 22
174 176 137 142 136 191 222 200 192 213 227 231 180 198 215 202 197 161 199 210 211 216 217 248 249 185 171 164 161 155 154 164 165 172 166 160 158 146 86 38 30 32 31 26 20 17 19 23 26 24 26 25 25 24
181 159 153 173 185 192 202 199 211 234 217 219 226 207 205 145 166 210 244 223 201 213 217 216 188 171 169 168 167 160 158 158 155 160 168 175 177 137 76 40 34 32 30 23 25 24 22 25 32 31 32 30 27 29
127 171 170 186 193 201 194 204 173 226 245 183 236 224 189 146 118 191 240 247 197 194 197 188 180 186 186 181 180 180 180 177 165 165 168 185 64 46 26 32 34 31 28 21 24 23 24 27 35 39 40 35 29 29
166 189 194 190 174 215 183 180 192 203 211 224 245 133 66 110 190 210 293 344 280 204 188 184 183 185 193 194 182 185 181 182 189 181 168 160 133 352 351 18 13 20 22 20 15 20 24 27 34 36 37 37 33 30
176 175 193 190 178 208 175 200 167 171 194 227 168 117 107 129 126 332 6 7 327 218 195 191 192 202 199 177 175 183 194 188 194 223 180 182 243 5 37 24 17 17 13 8 11 17 23 27 30 33 38 36 33 32
195 171 168 179 182 207 207 173 187 176 217 224 148 143 137 81 53 341 354 358 88 164 188 186 189 190 180 183 188 188 184 189 201 200 179 180 180 207 14 18 11 4 359 358 1 6 17 25 27 26 30 36 33 30
204 175 154 151 197 184 221 208 199 162 174 125 90 76 77 66 8 21 32 48 111 154 177 174 194 192 195 199 200 199 204 206 210 192 232 239 216 242 275 336 347 343 346 349 355 359 5 13 21 22 20 23 26 25
186 165 113 153 143 140 217 108 88 86 100 115 111 106 89 75 56 61 72 85 122 153 171 194 204 203 206 207 190 182 194 200 206 250 266 272 248 258 277 313 328 328 333 339 344 351 355 356 359 3 7 3 358 6
151 130 104 106 120 74 101 111 112 100 87 90 116 109 110 105 65 56 63 64 61 88 119 129 140 152 156 156 161 198 235 239 240 250 261 266 254 250 277 305 315 321 326 331 334 335 337 340 342 346 349 353 352 344
122 128 128 121 92 110 107 62 69 70 67 78 61 76 74 70 58 39 39 66 92 118 131 142 151 159 175 197 208 213 219 207 175 164 159 171 188 260 301 311 314 316 319 322 323 323 323 326 329 332 333 335 337 338
113 107 103 92 112 100 81 90 74 75 57 63 56 60 65 74 73 26 27 31 34 33 64 128 205 230 243 231 197 177 162 155 150 147 148 155 336 337 333 326 324 324 324 324 324 322 322 322 322 322 323 324 324 324
Wind_Speed_850mb
39 43 48 46 37 29 33 30 28 27 24 24 23 23 22 22 23 19 18 18 21 12 29 31 22 24 18 13 4 10 15 2 7 5 4 2 3 1 3 7 5 2 2 4 4 3 10 2 6 1 5 15 31 41
44 45 45 36 35 33 31 32 29 27 21 24 23 25 21 22 25 23 25 24 22 30 31 56 63 62 54 43 25 8 6 4 5 6 2 4 4 5 1 5 6 2 6 4 12 9 3 2 16 35 26 34 47 53
44 43 43 43 39 38 33 33 31 28 23 24 22 22 22 22 28 28 27 26 24 21 39 26 32 4 5 19 27 17 15 17 9 5 5 3 6 1 3 6 5 6 4 3 7 4 5 31 5 25 47 45 56 60
46 45 45 44 40 38 38 39 38 33 27 26 26 26 25 22 26 27 31 28 21 13 8 16 10 39 49 41 42 41 28 12 2 11 6 3 4 2 5 6 5 10 5 1 9 5 25 3 24 59 62 59 56 58
43 40 37 35 36 37 38 37 34 32 29 27 27 25 28 23 23 30 27 29 26 17 8 26 67 4 15 18 32 29 42 48 16 4 6 5 5 3 4 3 6 9 5 4 8 11 13 32 53 53 56 59 69 68
38 37 36 38 38 38 36 34 33 28 27 25 27 25 24 22 27 22 13 13 17 29 10 7 17 11 18 10 15 34 33 26 13 7 6 8 4 1 3 6 5 10 12 11 9 28 36 47 43 49 60 64 68 68
36 35 36 36 36 35 34 33 31 28 29 24 25 24 22 29 29 19 8 4 13 18 6 11 12 9 12 1 13 21 24 20 15 8 7 5 6 7 5 6 6 11 12 19 26 28 32 31 52 56 62 62 64 68
33 34 35 35 34 32 30 29 28 28 30 28 22 20 21 30 25 26 26 23 11 8 6 5 8 13 4 6 7 15 14 21 14 8 3 6 4 10 7 15 24 23 20 26 18 29 43 51 53 52 57 62 69 72
29 30 32 32 32 29 25 23 23 25 27 24 22 20 24 24 14 12 12 12 24 11 5 7 4 7 9 6 8 12 13 5 8 5 7 10 5 9 10 16 17 9 12 25 36 39 41 49 57 54 59 64 62 75
23 25 23 22 20 18 19 18 22 23 23 18 20 13 8 8 13 12 10 11 13 10 11 8 9 7 4 2 6 4 9 4 4 8 6 5 6 24 20 4 3 13 22 31 37 46 49 47 54 55 60 62 65 79
25 23 20 17 16 17 18 16 26 21 22 36 14 11 12 15 14 5 4 7 7 6 10 12 18 11 8 6 4 7 3 4 4 2 3 3 4 5 7 2 8 19 24 22 27 40 43 41 45 56 58 57 73 77
25 23 20 16 15 13 11 16 27 28 19 18 12 18 17 9 6 4 6 7 8 7 11 10 14 21 9 13 5 7 3 2 7 10 4 4 2 7 6 7 16 21 19 25 36 43 41 40 45 50 51 60 73 76
27 24 25 23 25 22 17 28 18 28 32 27 11 10 10 8 9 10 12 7 6 10 14 12 6 9 12 14 10 1 1 7 5 5 4 4 3 7 7 12 22 16 20 27 40 36 40 40 44 47 51 62 77 79
25 24 25 27 28 25 24 33 26 54 25 11 13 10 9 9 10 10 9 6 13 9 12 22 9 13 10 6 4 4 5 2 4 4 4 4 6 5 7 17 16 21 23 31 36 39 38 40 47 48 48 65 74 81
31 31 32 33 31 30 30 32 28 54 22 12 10 10 13 18 13 13 24 17 10 12 12 7 7 5 2 2 1 1 2 5 4 4 5 3 1 5 13 12 19 27 25 33 37 32 32 38 44 51 56 68 76 81
32 36 44 42 36 34 34 28 56 47 14 10 13 8 10 6 16 28 26 20 27 28 16 10 5 4 6 4 3 8 6 8 7 5 5 3 5 6 9 15 21 26 31 28 24 27 29 36 45 52 61 69 77 81
31 43 44 33 33 38 29 52 40 19 16 10 11 26 16 10 20 13 15 22 25 17 4 6 6 5 3 1 4 6 8 6 10 15 11 10 16 11 10 16 22 29 24 26 27 29 31 35 41 52 64 75 79 80
32 28 17 16 31 44 44 43 20 16 13 18 10 20 28 28 20 15 15 10 19 11 5 4 9 5 7 6 5 7 12 9 20 17 18 16 12 8 11 15 25 26 23 24 27 32 36 40 46 52 61 73 79 84
25 25 18 18 42 41 18 17 13 9 20 9 22 25 16 18 34 31 22 25 29 7 8 7 4 6 6 11 12 10 20 25 31 24 19 15 8 6 8 16 22 24 21 23 29 33 37 38 38 43 56 72 77 80
18 23 23 21 48 16 11 9 14 9 10 13 16 15 18 19 22 23 22 24 31 9 10 7 7 9 11 10 12 11 18 23 30 26 18 16 12 3 4 14 21 20 23 23 27 33 40 42 38 43 51 66 77 76
16 31 45 48 26 8 10 11 12 8 7 10 10 24 10 16 21 21 19 25 18 7 5 13 14 13 12 9 8 14 14 23 32 20 17 14 14 8 2 13 20 21 26 31 35 40 45 40 41 42 46 58 69 68
38 54 32 38 6 9 6 12 7 6 8 8 6 16 7 8 11 19 20 15 10 15 12 7 13 17 18 17 15 13 13 24 22 19 16 13 17 12 4 12 18 21 25 31 34 38 41 39 37 43 46 56 67 68
50 44 12 10 4 9 3 9 8 8 5 4 9 6 6 7 11 22 9 13 16 18 19 26 19 21 21 19 14 18 21 21 21 19 17 16 14 10 6 13 18 20 23 29 29 33 37 39 35 43 48 57 68 69
31 18 8 13 11 6 6 10 8 6 5 3 4 4 5 6 22 6 5 6 12 24 27 22 29 35 27 26 26 26 24 19 13 20 17 10 9 6 6 12 17 19 23 27 28 30 34 38 33 39 45 54 65 66
11 10 10 8 11 9 7 5 7 5 4 4 4 4 4 9 3 3 4 4 15 22 27 34 41 34 27 32 29 25 25 17 8 13 14 11 1 3 5 8 12 17 21 25 33 33 36 37 34 40 45 50 60 66
7 13 11 15 8 7 7 6 8 8 3 4 4 4 4 3 5 3 2 10 5 21 30 40 42 35 29 31 31 28 29 20 11 6 9 9 1 9 10 5 7 14 21 28 32 34 34 37 35 38 40 44 51 60
8 6 10 10 9 5 6 6 7 4 6 5 4 4 2 4 3 4 14 16 10 9 27 32 28 23 19 36 29 24 25 20 15 7 12 10 2 3 6 9 13 18 22 25 29 32 32 33 32 32 35 36 44 52
5 11 7 14 8 6 3 5 7 7 4 7 10 6 6 2 4 11 13 22 4 13 23 25 22 12 23 33 29 25 28 27 19 11 12 8 6 2 3 10 17 20 21 21 25 28 27 27 28 28 30 33 35 39
5 8 14 6 5 5 4 5 6 6 6 8 2 4 6 9 13 10 11 10 10 17 23 22 20 15 26 28 30 30 27 23 17 15 8 12 12 9 7 8 14 19 20 20 22 23 23 25 24 23 24 25 27 28
6 10 6 6 3 2 2 2 7 8 10 15 17 26 29 29 30 19 12 10 12 15 15 16 19 25 29 34 32 28 24 19 14 12 15 16 13 13 11 11 14 17 16 16 18 20 20 21 21 20 17 16 19 21
18 6 5 4 3 10 20 25 26 22 16 24 34 31 19 13 26 28 28 25 18 11 16 19 22 22 20 20 14 10 19 25 26 22 21 19 16 13 10 10 11 13 14 15 16 16 16 17 17 18 17 15 13 14
7 5 6 4 5 14 16 10 11 11 12 13 11 12 11 11 12 17 28 21 15 15 19 20 19 20 19 13 17 18 13 10 10 9 9 8 6 4 8 11 13 14 16 17 17 16 16 16 16 17 18 18 17 14
7 10 11 6 6 5 7 9 8 7 11 8 10 12 13 9 8 11 16 21 12 8 8 5 6 11 12 10 12 17 21 20 17 13 8 3 1 5 10 13 15 15 16 16 16 15 16 16 16 16 15 16 17 18
Wind_Direction_850mb
262 271 284 286 286 275 279 281 284 289 287 298 289 292 286 280 284 289 281 263 250 249 275 268 259 235 240 234 230 342 323 203 314 249 254 299 291 268 268 259 329 199 185 213 173 220 287 86 1 101 270 317 319 318
266 272 278 276 274 270 273 281 282 284 287 291 286 283 281 276 274 275 279 286 264 248 271 283 287 276 258 254 263 246 258 258 258 284 323 305 312 329 322 280 344 314 169 216 181 224 237 198 281 298 292 310 310 312
266 269 271 271 266 266 273 273 280 279 267 281 281 286 285 279 273 264 282 289 273 277 294 282 301 311 226 225 222 223 228 235 241 215 285 299 274 231 276 259 303 322 46 223 3 19 339 319 6 341 325 313 310 306
267 273 275 269 261 263 266 267 272 274 263 273 277 287 287 281 267 267 274 278 274 269 282 283 296 294 293 259 265 258 216 201 228 327 267 238 249 206 257 275 207 232 348 291 272 303 335 352 296 319 317 317 309 308
271 269 269 266 264 266 271 271 265 262 257 266 274 274 279 275 267 259 264 275 270 253 267 288 303 305 317 276 269 213 218 234 262 276 245 233 236 287 256 310 258 199 169 159 246 274 265 293 312 319 316 311 314 313
272 267 267 268 269 270 269 268 263 252 253 254 267 272 285 267 248 234 269 267 248 244 288 295 301 303 354 323 197 202 219 224 209 234 240 268 214 187 302 256 257 214 222 231 274 306 303 304 312 318 315 315 318 320
268 268 267 269 270 272 272 267 262 240 244 248 265 274 272 262 236 224 233 264 316 192 248 292 288 287 342 311 155 182 195 215 215 239 231 263 241 162 245 236 253 247 267 295 312 308 306 311 314 323 321 327 329 322
269 268 269 269 269 270 269 266 255 233 234 234 258 274 258 231 228 238 260 280 243 221 221 272 276 306 301 232 184 191 192 205 226 237 219 227 241 216 253 246 271 268 285 298 304 314 310 315 320 320 328 333 327 320
271 273 274 273 271 270 268 264 244 219 226 243 240 270 202 212 219 244 262 232 243 226 234 224 253 268 340 325 205 179 183 194 218 223 221 188 218 226 234 275 267 279 311 314 321 328 328 324 327 327 330 332 326 324
283 287 277 274 267 266 267 258 209 207 225 234 224 185 203 208 215 150 142 190 223 224 228 242 227 267 293 338 279 188 180 220 232 222 201 225 253 268 293 248 248 316 329 331 340 340 335 329 326 326 334 334 335 329
278 272 268 266 267 262 253 239 202 227 223 197 190 174 179 151 154 187 214 204 201 242 228 242 224 238 240 206 268 233 182 214 254 198 231 238 257 184 172 266 324 330 329 328 336 330 328 326 329 333 334 339 343 334
266 264 249 261 275 264 235 214 202 222 214 190 186 155 147 173 171 230 205 190 208 246 216 207 223 207 238 211 258 228 199 156 249 148 223 247 252 157 205 317 335 334 333 331 335 332 338 335 336 335 340 346 345 340
251 250 250 253 252 248 229 204 231 227 214 177 189 147 146 160 214 216 206 196 214 207 216 207 215 209 194 210 251 243 317 235 146 203 240 238 224 235 278 327 337 336 332 333 345 344 337 338 344 345 345 350 351 343
253 259 258 256 250 241 236 212 223 212 190 186 169 165 203 189 231 204 196 208 205 238 209 218 232 183 186 167 226 186 230 246 251 268 235 248 232 256 315 339 341 340 338 328 336 338 342 344 348 354 353 355 356 350
250 253 254 251 243 231 222 219 228 213 196 197 176 212 215 234 244 244 243 243 250 237 306 322 296 195 191 275 247 67 291 260 247 264 235 275 249 326 350 13 346 338 326 327 333 339 349 351 353 356 359 0 1 358
252 262 253 251 243 223 219 214 198 192 199 219 217 229 223 200 250 243 234 227 237 246 265 240 228 197 225 157 144 221 140 226 248 219 166 109 355 39 71 5 0 352 338 348 360 355 354 356 356 357 3 3 6 5
268 251 255 253 223 214 204 194 179 190 205 217 231 216 219 251 248 219 211 232 240 215 179 206 201 196 123 234 269 181 204 219 192 154 139 116 114 100 35 5 357 356 8 10 8 4 358 357 359 5 5 5 7 7
246 253 246 221 184 193 169 182 184 196 224 225 220 225 218 226 240 231 223 266 196 195 209 250 144 155 198 193 243 234 204 163 151 149 147 137 127 77 25 14 6 15 26 24 19 14 11 11 11 10 7 7 7 8
253 233 212 198 194 175 159 177 192 210 219 226 238 241 225 234 239 239 254 261 200 226 291 264 196 187 220 217 226 212 184 170 171 169 165 160 147 86 44 14 18 26 34 26 15 16 15 12 12 11 10 11 11 10
214 201 203 219 188 153 150 175 185 213 211 221 225 224 217 231 228 225 247 223 207 221 207 201 231 217 213 247 250 234 191 183 177 170 181 189 195 156 46 15 20 24 26 25 23 17 11 13 19 15 12 13 12 13
190 179 187 185 168 130 162 167 189 220 222 227 249 209 218 212 216 219 218 207 216 216 238 227 240 261 257 254 213 196 194 194 187 184 182 173 180 171 61 23 22 20 20 19 21 21 20 25 22 18 16 16 15 18
167 169 158 172 133 165 194 203 198 205 211 248 253 196 217 197 200 206 191 180 207 223 215 235 286 233 185 157 156 167 194 181 178 174 168 153 162 165 102 34 31 29 23 20 20 18 19 24 24 21 22 21 20 22
174 176 137 142 136 191 222 200 192 213 227 231 180 198 215 202 197 161 199 210 211 216 217 248 249 185 171 164 161 155 154 164 165 172 166 160 158 146 86 38 30 32 31 26 20 17 19 23 26 24 26 25 25 24
181 159 153 173 185 192 202 199 211 234 217 219 226 207 205 145 166 210 244 223 201 213 217 216 188 171 169 168 167 160 158 158 155 160 168 175 177 137 76 40 34 32 30 23 25 24 22 25 32 31 32 30 27 29
127 171 170 186 193 201 194 204 173 226 245 183 236 224 189 146 118 191 240 247 197 194 197 188 180 186 186 181 180 180 180 177 165 165 168 185 64 46 26 32 34 31 28 21 24 23 24 27 35 39 40 35 29 29
166 189 194 190 174 215 183 180 192 203 211 224 245 133 66 110 190 210 293 344 280 204 188 184 183 185 193 194 182 185 181 182 189 181 168 160 133 352 351 18 13 20 22 20 15 20 24 27 34 36 37 37 33 30
176 175 193 190 178 208 175 200 167 171 194 227 168 117 107 129 126 332 6 7 327 218 195 191 192 202 199 177 175 183 194 188 194 223 180 182 243 5 37 24 17 17 13 8 11 17 23 27 30 33 38 36 33 32
195 171 168 179 182 207 207 173 187 176 217 224 148 143 137 81 53 341 354 358 88 164 188 186 189 190 180 183 188 188 184 189 201 200 179 180 180 207 14 18 11 4 359 358 1 6 17 25 27 26 30 36 33 30
204 175 154 151 197 184 221 208 199 162 174 125 90 76 77 66 8 21 32 48 111 154 177 174 194 192 195 199 200 199 204 206 210 192 232 239 216 242 275 336 347 343 346 349 355 359 5 13 21 22 20 23 26 25
186 165 113 153 143 140 217 108 88 86 100 115 111 106 89 75 56 61 72 85 122 153 171 194 204 203 206 207 190 182 194 200 206 250 266 272 248 258 277 313 328 328 333 339 344 351 355 356 359 3 7 3 358 6
151 130 104 106 120 74 101 111 112 100 87 90 116 109 110 105 65 56 63 64 61 88 119 129 140 152 156 156 161 198 235 239 240 250 261 266 254 250 277 305 315 321 326 331 334 335 337 340 342 346 349 353 352 344
122 128 128 121 92 110 107 62 69 70 67 78 61 76 74 70 58 39 39 66 92 118 131 142 151 159 175 197 208 213 219 207 175 164 159 171 188 260 301 311 314 316 319 322 323 323 323 326 329 332 333 335 337 338
113 107 103 92 112 100 81 90 74 75 57 63 56 60 65 74 73 26 27 31 34 33 64 128 205 230 243 231 197 177 162 155 150 147 148 155 336 337 333 326 324 324 324 324 324 322 322 322 322 322 323 324 324 324